This is the latest recevied weather packets stored in our database for station/object N3AVN. If no packets are shown the sender has not sent any weather packets the latest 10 day(s).
| Time | Temp. | Humidity | Pressure | Rain* | Wind** | Luminosity | Snow |
|---|---|---|---|---|---|---|---|
| 1777740393 | 10.56° C | 93% | 1010 hPa | 0 mm | - | 89 W/m² | - |
| 1777740090 | 10.56° C | 94% | 1010.1 hPa | 0 mm | - | 242 W/m² | - |
| 1777739787 | 10° C | 93% | 1010 hPa | 0 mm | - | 103 W/m² | - |
| 1777739483 | 10° C | 92% | 1010.1 hPa | 0 mm | - | 70 W/m² | - |
| 1777739180 | 10° C | 92% | 1010 hPa | 1.27 mm | - | 72 W/m² | - |
| 1777738877 | 10° C | 90% | 1009.9 hPa | 1.27 mm | - | 130 W/m² | - |
| 1777738574 | 10° C | 88% | 1010.2 hPa | 0 mm | - | 73 W/m² | - |
| 1777738271 | 10° C | 86% | 1009.9 hPa | 0 mm | - | 48 W/m² | - |
| 1777737969 | 10.56° C | 86% | 1009.7 hPa | 0 mm | - | 59 W/m² | - |
| 1777737668 | 11.11° C | 82% | 1009.8 hPa | 0 mm | - | 51 W/m² | - |
| 1777737366 | 12.78° C | 81% | 1009.9 hPa | 0 mm | - | 95 W/m² | - |
| 1777737062 | 12.22° C | 82% | 1009.8 hPa | 0 mm | - | 149 W/m² | - |
| 1777736758 | 11.67° C | 82% | 1009.8 hPa | 0 mm | - | 199 W/m² | - |
| 1777736130 | 11.67° C | 82% | 1010.1 hPa | 0 mm | - | 137 W/m² | - |
| 1777735827 | 12.22° C | 82% | 1010 hPa | 0 mm | - | 158 W/m² | - |
| 1777735525 | 11.67° C | 82% | 1010.3 hPa | 0 mm | - | 209 W/m² | - |
| 1777735222 | 11.67° C | 82% | 1010.2 hPa | 0 mm | - | 110 W/m² | - |
| 1777734919 | 11.67° C | 83% | 1010.2 hPa | 0 mm | - | 56 W/m² | - |
| 1777734616 | 11.67° C | 83% | 1010 hPa | 0 mm | - | 67 W/m² | - |
| 1777734314 | 11.67° C | 84% | 1010.3 hPa | 0 mm | - | 100 W/m² | - |
| 1777734009 | 11.67° C | 84% | 1010.2 hPa | 0 mm | - | 88 W/m² | - |
| 1777733706 | 11.67° C | 84% | 1010.2 hPa | 0 mm | - | 43 W/m² | - |
| 1777733402 | 11.67° C | 84% | 1010.5 hPa | 0 mm | - | 28 W/m² | - |
| 1777733093 | 11.67° C | 85% | 1010.2 hPa | 0 mm | - | 28 W/m² | - |
| 1777732789 | 11.67° C | 83% | 1010 hPa | 0 mm | - | 39 W/m² | - |
* Rain latest hour (hover to see other rain measurements)
** Current wind speed in m/s (hover to see current wind gust speed)